Miscellaneous Local Product
Issued by NWS Hastings, NE

Home | Current Version | Previous Version | Text Only | Print | Product List | Glossary Off
Versions: 1 2 3 4 5 6 7 8 9 10 11 12 13 14 15 16 17 18 19 20 21 22 23 24 25 26 27 28 29 30 31 32 33 34 35 36 37 38 39 40 41 42 43 44 45 46 47 48 49 50

000
AXUS43 KGID 020902
MISGRI

GID CWA HOURLY WEATHER ROUNDUP
NATIONAL WEATHER SERVICE HASTINGS NE
400 AM CDT WED SEP 02 2015

NOTE: "FAIR" INDICATES FEW OR NO CLOUDS BELOW 12,000 FEET WITH NO
SIGNIFICANT WEATHER AND/OR OBSTRUCTIONS TO VISIBILITY.

...SOUTH CENTRAL NEBRASKA...

CITY           SKY/WX    TMP DP  RH WIND       PRES   REMARKS
GRAND ISLAND   CLEAR     72  63  73 S10       29.88F
HASTINGS       CLEAR     71  63  75 S7        29.89S
KEARNEY        CLEAR     66  59  77 S8        29.89S
ORD            CLEAR     69  62  78 S3        29.86S
YORK           CLEAR     70  66  88 S8        29.89S
AURORA         CLEAR     72  67  85 S8        29.88F
LEXINGTON      CLEAR     64  61  91 E3        29.90S
HOLDREGE       CLEAR     69  59  69 S7        29.90S
HEBRON         CLEAR     74  65  73 S8        29.90S

...NEBRASKA PANHANDLE...

CITY           SKY/WX    TMP DP  RH WIND       PRES   REMARKS
CHADRON        CLEAR     56  45  66 SW5       29.88R
ALLIANCE       PTCLDY    57  47  69 W8        29.94R
SCOTTSBLUFF    PTCLDY    58  51  78 N5        29.96F
SIDNEY         CLEAR     62  43  49 W10       29.99F

...WESTERN AND NORTH CENTRAL NEBRASKA...

CITY           SKY/WX    TMP DP  RH WIND       PRES   REMARKS
VALENTINE      CLEAR     65  59  81 CALM      29.85S
AINSWORTH      CLEAR     65  62  90 S7        29.86
ONEILL         CLEAR     68  66  92 S7        29.85S
BROKEN BOW     CLEAR     63  60  90 CALM      29.89S
IMPERIAL       CLEAR     65  56  72 SW7       29.94S
NORTH PLATTE   CLEAR     63  59  87 CALM      29.91S
MCCOOK         CLEAR     63  57  81 CALM      29.90S

...EASTERN NEBRASKA...

CITY           SKY/WX    TMP DP  RH WIND       PRES   REMARKS
NORFOLK        CLEAR     65  64  97 E3        29.85F
SO SIOUX CITY  CLEAR     71  65  81 SE10      29.86R
TEKAMAH        CLEAR     70  68  93 SE6       29.88R
COLUMBUS       CLEAR     72  63  73 SW5       29.87S
ALBION         CLEAR     70  63  80 S5        29.86F
OMAHA EPPLEY   MOCLDY    76  68  76 SE14      29.90R
OFFUTT AFB     PTCLDY    74  69  82 SE12      29.89S
MILLARD        CLEAR     73  68  86 SE6       29.89S
LINCOLN        CLEAR     75  68  78 S12       29.89S
NEBRASKA CITY  PTCLDY    74  65  74 S14       29.92S
BEATRICE       CLEAR     74  68  79 S9        29.90S
FALLS CITY     MOCLDY    74  69  85 SE10      29.93S

...NORTHERN KANSAS...

CITY           SKY/WX    TMP DP  RH WIND       PRES   REMARKS
GOODLAND       MOCLDY    70  57  63 SW5       29.97S
HILL CITY      CLEAR     78  57  48 SW13G22   29.91S
NORTON         SUNNY     73  54  49 S7        29.90S
PHILLIPSBURG   CLEAR     79  57  47 CALM      29.90S
SMITH CENTER   CLEAR     72  59  64 S9        29.91S
HAYS           CLEAR     75  55  50 S8        29.93S
RUSSELL        CLEAR     77  60  55 S17       29.92S
CONCORDIA      CLEAR     75  66  73 S17       29.90S
SALINA         CLEAR     79  64  60 S17G26    29.92F
TOPEKA         PTCLDY    75  67  76 S5        29.95F



USA.gov is the U.S. government's official web portal to all federal, state and local government web resources and services.